Regional Weather Roundup
Issued by NWS

Home | Current Version | Previous Version | Text Only | Print | Product List | Glossary On
Versions: 1 2 3 4 5 6 7 8 9 10 11 12 13 14 15 16 17 18 19 20 21 22 23 24 25 26 27 28 29 30 31 32 33 34 35 36 37 38 39 40 41 42 43 44 45 46 47 48 49 50
000
ASUS44 KMEG 021810
RWRTN
TENNESSEE HOURLY STATE WEATHER ROUNDUP
NATIONAL WEATHER SERVICE MEMPHIS TN
1200 PM CST FRI DEC 02 2016

TNZ002-004-019-021-049-052-054-088>092-021900-
WEST TENNESSEE

CITY           SKY/WX    TMP DP  RH WIND       PRES   REMARKS
MEMPHIS INTL   MOSUNNY   61  30  31 W7        30.26F
NWS MEMPHIS      N/A     60 N/A N/A MISG        N/A
JACKSON        SUNNY     56  33  42 NW10      30.25F
DYERSBURG      SUNNY    N/A N/A N/A E7        30.27F
UNION CITY     SUNNY     52  28  40 CALM      30.25F
PARIS          SUNNY     50  28  43 CALM      30.26F
HUNTINGDON     SUNNY     54  32  43 CALM      30.25F
LEXINGTON      SUNNY     55  30  38 VRB3      30.25F
$$

TNZ008-025-027-028-033-062-065-066-021900-
NORTH MIDDLE TENNESSEE

CITY           SKY/WX    TMP DP  RH WIND       PRES   REMARKS
NASHVILLE      MOSUNNY   55  26  32 VRB6      30.25F
PORTLAND       SUNNY     50  28  43 NW5       30.25F
CLARKSVILLE    SUNNY     50  28  42 CALM      30.26F
SMYRNA         SUNNY     55  30  38 NE5       30.26F
CROSSVILLE     SUNNY     49  24  37 W15       30.22F
$$

TNZ061-075-076-078-094-096-097-021900-
SOUTH MIDDLE TENNESSEE

CITY           SKY/WX    TMP DP  RH WIND       PRES   REMARKS
FAYETTEVILLE   SUNNY     55  28  35 CALM      30.25F
TULLAHOMA      SUNNY     55  21  26 NW8       30.25F
WINCHESTER     SUNNY     54  28  37 W5        30.25F
MCMINNVILLE    SUNNY     54  30  40 VRB6      30.24F
COLUMBIA       SUNNY     57  32  38 N6        30.23F
SHELBYVILLE    SUNNY     57  30  35 NW3       30.25F
$$

TNZ017-018-042-046-047-021900-
NORTHEAST TENNESSEE

CITY           SKY/WX    TMP DP  RH WIND       PRES   REMARKS
TRI CITIES     MOSUNNY   48  29  47 W10       30.20F
ELIZABETHTON   DRIZZLE   48  28  46 W10G20    30.19F
$$

TNZ012-013-036-069-073-074-021900-
CENTRAL EAST TENNESSEE

CITY           SKY/WX    TMP DP  RH WIND       PRES   REMARKS
KNOXVILLE      MOSUNNY   51  28  41 S7        30.23F
OAK RIDGE      SUNNY     53  29  39 S6        30.24F
DOWNTOWN KNOXV SUNNY     54  28  37 VRB5      30.24F
GATLINBURG     SUNNY     54  25  32 W7        30.23S
MORRISTOWN     SUNNY     48  28  46 NW7G13    30.21F
JACKSBORO      SUNNY     52  27  37 VRB3G13   30.24F
$$

TNZ083-085-099-021900-
SOUTHEAST TENNESSEE

CITY           SKY/WX    TMP DP  RH WIND       PRES   REMARKS
CHATTANOOGA    MOSUNNY   54  30  40 NE5       30.25F
$$

SKY/WX REPORTED AS FAIR MEANS FEW OR NO CLOUDS BELOW
12 THOUSAND FEET.





USA.gov is the U.S. government's official web portal to all federal, state and local government web resources and services.